Weather observations for the past three days for
Akhiok
| Date | Time (akdt) | Wind (kph) | Vis. (km) | Weather | Sky Cond. | Temperature (ºC) | Relative Humidity | Wind Chill (°C) | Heat Index (°C) | Pressure | Precipitation (cm) | ||||||
|---|---|---|---|---|---|---|---|---|---|---|---|---|---|---|---|---|---|
| Air | Dwpt | 6 hour | altimeter (cm) | sea level (mb) | 1 hr | 3 hr | 6 hr | ||||||||||
| Max. | Min. | ||||||||||||||||
| 05 | 20:56 | Vrbl 9 | 0.00 | Overcast | OVC080 | 0 | 0 | 0% | 75.9 | 0.0 | |||||||
| 05 | 19:56 | NW 46 G 61 | 0.00 | Partly Cloudy and Windy | SCT120 | 0 | 0 | 0% | 75.79 | 0.0 | |||||||
| 05 | 18:56 | NW 44 G 69 | 0.00 | Mostly Cloudy and Windy | BKN009 | 0 | 0 | 0% | 75.74 | 0.0 | |||||||
| 05 | 17:56 | NW 33 G 52 | 0.00 | Overcast and Breezy | BKN009 OVC014 | 0 | 0 | 0% | 75.77 | 0.0 | |||||||
| 05 | 16:56 | W 31 G 48 | 0.00 | Overcast | OVC014 | 0 | 0 | 0% | 75.72 | 0.0 | |||||||
| 05 | 15:56 | W 20 G 31 | 0.00 | Overcast | BKN021 OVC027 | 0 | 0 | 0% | 75.69 | 0.0 | |||||||
| 05 | 14:56 | NW 15 G 35 | 0.00 | Overcast | FEW018 OVC023 | 0 | 0 | 0% | 75.64 | 0.0 | |||||||
| 05 | 13:56 | W 22 | 0.00 | Overcast | FEW025 BKN045 OVC055 | 0 | 0 | 0% | 75.62 | 0.0 | |||||||
| 05 | 12:56 | W 26 | 0.00 | Overcast | BKN013 BKN037 OVC060 | 0 | 0 | 0% | 75.57 | 0.0 | |||||||
| 05 | 11:56 | W 15 | 0.00 | Overcast | OVC036 | 0 | 0 | 0% | 75.49 | 0.0 | |||||||
| 05 | 10:56 | W 20 G 26 | 0.00 | Overcast | OVC012 | 0 | 0 | 0% | 75.44 | 0.0 | |||||||
| 05 | 09:56 | W 20 | 0.00 | Overcast | OVC010 | 0 | 0 | 0% | 75.39 | 0.0 | |||||||
| 05 | 08:56 | W 19 | 0.00 | Overcast | OVC008 | 0 | 0 | 0% | 75.34 | 0.0 | |||||||
| 05 | 07:56 | W 13 | 0.00 | Overcast | OVC008 | 0 | 0 | 0% | 75.26 | 0.0 | |||||||
| 05 | 06:56 | W 15 | 0.00 | Overcast | OVC008 | 0 | 0 | 0% | 75.21 | 0.0 | |||||||
| 05 | 05:56 | NW 13 | 0.00 | Overcast | BKN010 OVC015 | 0 | 0 | 0% | 75.13 | 0.0 | |||||||
| 05 | 04:56 | NW 24 G 37 | 0.00 | Overcast | SCT028 BKN036 OVC070 | 0 | 0 | 0% | 75.06 | 0.0 | |||||||
| 05 | 03:56 | NW 26 G 37 | 0.00 | Mostly Cloudy | BKN070 | 0 | 0 | 0% | 74.9 | 0.0 | |||||||
| 05 | 02:56 | NW 19 | 0.00 | Mostly Cloudy | BKN019 BKN032 BKN070 | 0 | 0 | 0% | 74.83 | 0.0 | |||||||
| 05 | 01:56 | NW 7 | 0.00 | Overcast | OVC030 | 0 | 0 | 0% | 74.78 | 0.0 | |||||||
| 05 | 00:56 | Calm | 0.00 | Overcast | OVC038 | 0 | 0 | 0% | 74.7 | 0.0 | |||||||
| 04 | 23:56 | E 7 | 0.00 | Overcast | BKN033 OVC055 | 0 | 0 | 0% | 74.65 | 0.0 | |||||||
| 04 | 22:56 | NE 9 | 0.00 | Overcast | OVC036 | 0 | 0 | 0% | 74.6 | 0.0 | |||||||
| 04 | 21:56 | SW 9 | 0.00 | Overcast | OVC027 | 0 | 0 | 0% | 74.57 | 0.0 | |||||||
| 04 | 20:56 | NW 19 | 0.00 | Overcast | OVC029 | 0 | 0 | 0% | 74.55 | 0.0 | |||||||
| 04 | 19:56 | N 6 | 0.00 | Overcast | OVC029 | 0 | 0 | 0% | 74.55 | 0.0 | |||||||
| 04 | 18:56 | E 17 G 26 | 0.00 | Overcast | OVC027 | 0 | 0 | 0% | 74.55 | 0.0 | |||||||
| 04 | 17:56 | E 19 | 0.00 | Overcast | OVC023 | 0 | 0 | 0% | 74.57 | 0.0 | |||||||
| 04 | 16:56 | E 24 | 0.00 | Overcast | OVC020 | 0 | 0 | 0% | 74.63 | 0.0 | |||||||
| 04 | 15:56 | E 28 G 35 | 0.00 | Overcast | BKN024 OVC030 | 0 | 0 | 0% | 74.7 | 0.0 | |||||||
| 04 | 14:56 | E 22 | 0.00 | Overcast | BKN015 OVC020 | 0 | 0 | 0% | 74.75 | 0.0 | |||||||
| 04 | 13:56 | E 26 | 0.00 | Overcast | OVC021 | 0 | 0 | 0% | 74.83 | 0.0 | |||||||
| 04 | 12:56 | E 24 | 0.00 | Overcast | BKN015 OVC021 | 0 | 0 | 0% | 74.88 | 0.0 | |||||||
| 04 | 11:56 | E 30 G 41 | 0.00 | Overcast | SCT018 OVC025 | 0 | 0 | 0% | 74.93 | 0.0 | |||||||
| 04 | 10:56 | E 28 | 0.00 | Overcast | BKN028 OVC040 | 0 | 0 | 0% | 74.98 | 0.0 | |||||||
| 04 | 09:56 | E 22 | 0.00 | Overcast | BKN021 OVC037 | 0 | 0 | 0% | 75.06 | 0.0 | |||||||
| 04 | 08:56 | E 28 G 39 | 0.00 | Overcast | FEW021 OVC039 | 0 | 0 | 0% | 75.11 | 0.0 | |||||||
| 04 | 07:56 | NE 30 | 0.00 | Overcast | SCT022 OVC037 | 0 | 0 | 0% | 75.21 | 0.0 | |||||||
| 04 | 06:56 | NE 31 G 44 | 0.00 | Overcast | OVC045 | 0 | 0 | 0% | 75.29 | 0.0 | |||||||
| 04 | 05:56 | NE 22 | 0.00 | Overcast | FEW017 BKN028 OVC090 | 0 | 0 | 0% | 75.36 | 0.0 | |||||||
| 04 | 04:56 | E 22 | 0.00 | Overcast | SCT017 BKN026 OVC045 | 0 | 0 | 0% | 75.51 | 0.0 | |||||||
| 04 | 03:56 | E 22 | 0.00 | Overcast | SCT015 OVC021 | 0 | 0 | 0% | 75.64 | 0.0 | |||||||
| 04 | 02:56 | E 24 | 0.00 | Overcast | FEW013 OVC019 | 0 | 0 | 0% | 75.74 | 0.0 | |||||||
| 04 | 01:56 | E 17 | 0.00 | Overcast | OVC011 | 0 | 0 | 0% | 75.87 | 0.0 | |||||||
| 04 | 00:56 | E 19 | 0.00 | Overcast | OVC007 | 0 | 0 | 0% | 75.9 | 0.0 | |||||||
| 03 | 23:56 | E 19 | 0.00 | Overcast | OVC009 | 0 | 0 | 0% | 75.92 | 0.0 | |||||||
| 03 | 22:56 | E 22 | 0.00 | Overcast | OVC011 | 0 | 0 | 0% | 75.9 | 0.0 | |||||||
| 03 | 21:56 | E 15 | 0.00 | Overcast | OVC011 | 0 | 0 | 0% | 75.9 | 0.0 | |||||||
| 03 | 20:56 | E 19 | 0.00 | Overcast | OVC011 | 0 | 0 | 0% | 75.9 | 0.0 | |||||||
| 03 | 19:56 | E 17 | 0.00 | Overcast | OVC013 | 0 | 0 | 0% | 75.92 | 0.0 | |||||||
| 03 | 18:56 | E 19 | 0.00 | Overcast | OVC015 | 0 | 0 | 0% | 75.92 | 0.0 | |||||||
| 03 | 17:56 | E 15 | 0.00 | Overcast | OVC017 | 0 | 0 | 0% | 75.95 | 0.0 | |||||||
| 03 | 16:56 | E 11 | 0.00 | Overcast | OVC015 | 0 | 0 | 0% | 75.97 | 0.0 | |||||||
| 03 | 15:56 | E 11 | 0.00 | Overcast | OVC018 | 0 | 0 | 0% | 76 | 0.0 | |||||||
| 03 | 14:56 | E 6 | 0.00 | Overcast | OVC020 | 0 | 0 | 0% | 76.02 | 0.0 | |||||||
| 03 | 13:56 | E 7 | 0.00 | Overcast | OVC020 | 0 | 0 | 0% | 76.05 | 0.0 | |||||||
| 03 | 12:56 | Calm | 0.00 | Overcast | OVC024 | 0 | 0 | 0% | 76.07 | 0.0 | |||||||
| 03 | 11:56 | Calm | 0.00 | Overcast | OVC024 | 0 | 0 | 0% | 76.1 | 0.0 | |||||||
| 03 | 10:56 | E 6 | 0.00 | Overcast | BKN027 OVC032 | 0 | 0 | 0% | 76.1 | 0.0 | |||||||
| 03 | 09:56 | Calm | 0.00 | Overcast | OVC030 | 0 | 0 | 0% | 76.1 | 0.0 | |||||||
| 03 | 08:56 | Calm | 0.00 | Overcast | OVC028 | 0 | 0 | 0% | 76.12 | 0.0 | |||||||
| 03 | 07:56 | NE 9 | 0.00 | Overcast | FEW030 OVC043 | 0 | 0 | 0% | 76.1 | 0.0 | |||||||
| 03 | 06:56 | Calm | 0.00 | Overcast | BKN045 OVC055 | 0 | 0 | 0% | 76.15 | 0.0 | |||||||
| 03 | 05:56 | Calm | 0.00 | Overcast | OVC040 | 0 | 0 | 0% | 76.15 | 0.0 | |||||||
| 03 | 04:56 | E 9 | 0.00 | Overcast | BKN042 BKN055 OVC070 | 0 | 0 | 0% | 76.17 | 0.0 | |||||||
| 03 | 03:56 | NE 13 | 0.00 | Overcast | OVC035 | 0 | 0 | 0% | 76.2 | 0.0 | |||||||
| 03 | 02:56 | NE 11 | 0.00 | Overcast | BKN030 BKN050 OVC070 | 0 | 0 | 0% | 76.25 | 0.0 | |||||||
| 03 | 01:56 | NE 11 | 0.00 | Overcast | FEW030 BKN037 OVC050 | 0 | 0 | 0% | 76.25 | 0.0 | |||||||
| 03 | 00:56 | NE 7 | 0.00 | Overcast | OVC029 | 0 | 0 | 0% | 76.28 | 0.0 | |||||||
| 02 | 23:56 | Calm | 0.00 | Overcast | BKN045 OVC060 | 0 | 0 | 0% | 76.3 | 0.0 | |||||||
| 02 | 22:56 | Calm | 0.00 | Overcast | FEW040 SCT050 OVC075 | 0 | 0 | 0% | 76.28 | 0.0 | |||||||
| 02 | 21:56 | Calm | 0.00 | Overcast | BKN065 OVC080 | 0 | 0 | 0% | 76.25 | 0.0 | |||||||
| Date | Time (akdt) | Wind (kph) | Vis. (km) | Weather | Sky Cond. | Air | Dwpt | Max. | Min. | Relative Humidity | Wind Chill (°C) | Heat Index (°C) | altimeter (cm) | sea level (mb) | 1 hr | 3 hr | 6 hr |
| 6 hour | |||||||||||||||||
| Temperature (ºC) | Pressure | Precipitation (cm) | |||||||||||||||